Current weather by "City, St" or "zip code"  
 
Advertise Here

Current Conditions: Jamestown, Chautauqua County/Jamestown Airport, NY

Fair


61.0 F

Last Updated on Sep 17 2021, 12:56 am EDT
Humidity: 97%
Wind Speed: S 4.6 mph
Barometer 30.21 in
Dewpoint: 60.1 F
Visibility: 10.00 mi
Precip: --
Heat Index: NA
Wind Chill: 61 F
Current conditions at:

Jamestown, Chautauqua County/Jamestown Airport, NY (KJHW)

Lat: 42.15 Lon: 79.26667

Local Radar Image active severe weather and emergency alerts image image weather storm and storm spotter reports image weather observation monitoring service image
Local
Radar
Active
Alerts
Storm Reports Obs
Monitoring

Sign-up For Email & Text Message Weather Alert Notification Services



Advertise Here

Observation History for Jamestown, Chautauqua County/Jamestown Airport, NY


Time Wind
(mph)
Vis
(mi)
Weather Precip (in) Temperature (F) Relative
Humidity
Wind
Chill
(F)
Heat
Index
(F)
Pressure
Air Dwpt altimeter
(in)
sea level
(mb)
Rmks
12:56 am EDT S 4.6 10.00 Fair -- 61.0 60.1 97% 61 NA 30.21 1023.1
11:56 pm EDT S 4.6 10.00 Fair -- 62.0 60.1 93% 62 NA 30.23 1023.6
10:56 pm EDT S 5.8 10.00 Fair -- 62.0 60.1 93% 62 NA 30.23 1023.6
9:56 pm EDT S 4.6 10.00 Fair -- 63.0 61.0 93% 64 NA 30.23 1023.9
8:56 pm EDT S 4.6 10.00 Fair -- 64.0 61.0 90% NA NA 30.23 1024.0
7:56 pm EDT SE 9.2 10.00 Fair -- 66.0 60.1 81% NA NA 30.22 1023.5
6:56 pm EDT SE 4.6 10.00 Fair -- 69.0 61.0 76% NA NA 30.21 1023.2
5:56 pm EDT SE 6.9 10.00 Mostly Cloudy -- 69.0 60.1 73% NA NA 30.20 1022.9
4:56 pm EDT E 6.9 10.00 Mostly Cloudy -- 70.0 57.0 64% NA NA 30.21 1023.1
3:56 pm EDT E 5.8 10.00 A Few Clouds -- 72.0 55.9 57% NA NA 30.20 1022.9
2:56 pm EDT E 6.9 10.00 Fair -- 71.0 52.0 51% NA NA 30.21 1023.2
1:56 pm EDT E 8.1 10.00 Fair -- 70.0 52.0 53% NA NA 30.23 1023.8
12:56 pm EDT E 9.2 10.00 Fair -- 69.0 52.0 55% NA NA 30.24 1023.9
11:56 am EDT 4.6 10.00 Fair -- 67.0 55.9 68% NA NA 30.24 1024.3
10:56 am EDT E 8.1 10.00 Fair -- 64.0 57.0 78% NA NA 30.25 1024.5
9:56 am EDT E 6.9 10.00 Fair -- 59.0 57.9 96% 58 NA 30.24 1024.4
8:56 am EDT E 5.8 5.00 Fog/Mist -- 55.0 55.0 100% 54 NA 30.23 1024.2
7:56 am EDT 0.15 Fog -- 53.0 53.1 100% NA NA 30.23 1024.2
6:56 am EDT 0.50 Fog -- 51.0 50.0 96% NA NA 30.21 1023.5
5:56 am EDT 0.25 Fog -- 51.0 51.1 100% NA NA 30.19 1022.8
4:56 am EDT 0.75 Fog/Mist -- 52.0 52.0 100% NA NA 30.17 1022.1
3:56 am EDT 0.50 Fog -- 51.0 51.1 100% NA NA 30.17 1022.0
2:56 am EDT 1.25 Fog/Mist -- 55.0 55.0 100% NA NA 30.17 1021.8
1:56 am EDT 0.50 Fog -- 56.0 55.9 100% NA NA 30.15 1021.3

Regional Weather Observation


Dunkirk, Chautauqua County / Dunkirk Airport, NY (KDKK)

Fair
69.0 F

Erie, Erie International Airport, PA (KERI)

Fair
68.0 F

Buffalo, Greater Buffalo International Airport, NY (KBUF)

Fair
63.0 F

Cattaraugus County-Olean Airport, NY (KOLE)

Overcast
59.0 F

Bradford Regional Airport, PA (KBFD)

Overcast
65.0 F

Franklin, Venango Regional Airport, PA (KFKL)

Fair
63.0 F
Advertise Here


Advertise Here